Lancaster, OH

6:48 AM EST on February 13, 2016 (GMT -0500)
Fairfield County

Weather History for KLHQ - February, 2013

Change the Weather History Date:

Friday, February 1, 2013

  Actual Average Record
Temperature  
Mean Temperature 14 °F -  
Max Temperature 19 °F 36 °F 64 °F (2002)
Min Temperature 8 °F 19 °F -11 °F (2004)
Degree Days  
Heating Degree Days 52    
Moisture  
Dew Point 5 °F    
Average Humidity 69    
Maximum Humidity 80    
Minimum Humidity 61    
Precipitation  
Precipitation 0.00 in - - ()
Sea Level Pressure  
Sea Level Pressure 30.17 in    
Wind  
Wind Speed 13 mph (WNW)    
Max Wind Speed 18 mph    
Max Gust Speed 29 mph    
Visibility 6 miles    
Events Snow    
Averages and records for this station are not official NWS values.
T = Trace of Precipitation, MM = Missing Value Source: NWS Daily Summary

Daily Weather History Graph

Daily Weather History Graph

Search for Another Location

Airport or City:

Trip Planner

Search our weather history database for the weather conditions in past years. The results will help you decide how hot, cold, wet, or windy it might be!

Date:

Astronomy

Feb. 01, 2013 Rise Set
Actual Time 7:38 AM EST 5:50 PM EST
Civil Twilight 7:09 AM EST 6:19 PM EST
Nautical Twilight 6:37 AM EST 6:51 PM EST
Astronomical Twilight 6:05 AM EST 7:23 PM EST
Moon 11:55 PM EST (2/1) 10:11 AM EST (2/1)
Length of Visible Light 11h 09m
Length of Day
10h 12m
Waning Gibbous, 70% of the Moon is Illuminated
Feb 1
Waning Gibbous
Feb 3
Last Quarter
Feb 10
New
Feb 17
First Quarter
Feb 25
Full

Hourly Weather History & Observations

Time (EST) Temp. Windchill Dew Point Humidity Pressure Visibility Wind Dir Wind Speed Gust Speed Precip Events Conditions
12:06 AM 19.4 °F 5.0 °F 14.0 °F 80% 29.92 in 1.0 mi NW 16.1 mph 26.5 mph 0.00 in Snow Light Snow
12:15 AM 19.4 °F 7.2 °F 12.2 °F 74% 29.92 in 2.0 mi WNW 11.5 mph 21.9 mph 0.00 in Snow Light Snow
12:22 AM 19.4 °F 5.0 °F 12.2 °F 74% 29.93 in 2.5 mi NW 16.1 mph 23.0 mph 0.00 in Snow Light Snow
12:26 AM 19.4 °F 5.5 °F 12.2 °F 74% 29.93 in 1.8 mi NW 15.0 mph 24.2 mph 0.00 in Snow Light Snow
12:53 AM 18.0 °F 4.2 °F 10.9 °F 74% 29.99 in 1.2 mi WNW 13.8 mph 25.3 mph 0.00 in Snow Light Snow
1:04 AM 17.6 °F 4.3 °F 12.2 °F 79% 29.95 in 1.0 mi WNW 12.7 mph 24.2 mph 0.00 in Snow Light Snow
1:19 AM 17.6 °F 3.2 °F 10.4 °F 73% 29.96 in 1.8 mi NW 15.0 mph 21.9 mph 0.00 in Snow Light Snow
1:26 AM 17.6 °F 3.7 °F 10.4 °F 73% 29.96 in 2.0 mi NW 13.8 mph - 0.00 in Snow Light Snow
1:35 AM 17.6 °F 2.7 °F 8.6 °F 68% 29.97 in 2.5 mi NW 16.1 mph 24.2 mph 0.00 in Snow Light Snow
1:47 AM 15.8 °F 4.2 °F 10.4 °F 79% 29.98 in 3.0 mi WNW 9.2 mph 17.3 mph 0.00 in Snow Light Snow
1:49 AM 15.8 °F 1.4 °F 10.4 °F 79% 29.98 in 2.5 mi WNW 13.8 mph 18.4 mph 0.00 in Snow Light Snow
1:53 AM 16.0 °F 1.1 °F 10.0 °F 77% 30.02 in 2.0 mi WNW 15.0 mph 21.9 mph 0.00 in Snow Light Snow
1:59 AM 15.8 °F 2.7 °F 10.4 °F 79% 29.99 in 1.8 mi WNW 11.5 mph 21.9 mph 0.00 in Snow Light Snow
2:02 AM 15.8 °F 2.7 °F 8.6 °F 73% 29.99 in 2.5 mi WNW 11.5 mph 21.9 mph 0.00 in Snow Light Snow
2:21 AM 15.8 °F 0.9 °F 8.6 °F 73% 30.01 in 2.0 mi WNW 15.0 mph 20.7 mph 0.00 in Snow Light Snow
2:32 AM 15.8 °F 0.3 °F 8.6 °F 73% 30.02 in 1.8 mi WNW 16.1 mph 21.9 mph 0.00 in Snow Light Snow
2:37 AM 15.8 °F 2.1 °F 8.6 °F 73% 30.02 in 2.5 mi WNW 12.7 mph 23.0 mph 0.00 in Snow Light Snow
2:46 AM 15.8 °F 0.3 °F 6.8 °F 68% 30.03 in 3.0 mi West 16.1 mph 25.3 mph 0.00 in Snow Light Snow
2:53 AM 15.1 °F -0.6 °F 5.0 °F 64% 30.07 in 8.0 mi WNW 16.1 mph 23.0 mph 0.00 in Snow Light Snow
3:53 AM 12.9 °F -2.2 °F 3.9 °F 67% 30.13 in 7.0 mi WNW 13.8 mph 23.0 mph 0.00 in Snow Light Snow
4:06 AM 12.2 °F -3.1 °F 1.4 °F 62% 30.10 in 10.0 mi WNW 13.8 mph 23.0 mph 0.00 in   Overcast
4:37 AM 12.2 °F -0.2 °F 3.2 °F 67% 30.12 in 2.5 mi West 9.2 mph - 0.00 in Snow Light Snow
4:40 AM 12.2 °F -1.8 °F 5.0 °F 73% 30.12 in 1.8 mi WNW 11.5 mph 16.1 mph 0.00 in Snow Light Snow
4:47 AM 10.4 °F -7.7 °F 3.2 °F 73% 30.12 in 2.5 mi West 18.4 mph 26.5 mph 0.00 in Snow Light Snow
5:53 AM 9.0 °F -5.9 °F -0.9 °F 64% 30.22 in 10.0 mi WNW 11.5 mph 28.8 mph N/A   Overcast
6:53 AM 8.1 °F -9.6 °F -0.9 °F 67% 30.26 in 10.0 mi West 16.1 mph 21.9 mph N/A   Overcast
7:22 AM 8.6 °F -3.7 °F -0.4 °F 67% 30.23 in 10.0 mi West 8.1 mph - N/A   Overcast
7:53 AM 8.1 °F -4.3 °F -0.9 °F 67% 30.30 in 7.0 mi West 8.1 mph 18.4 mph N/A   Overcast
8:53 AM 8.1 °F -7.0 °F -2.0 °F 64% 30.33 in 10.0 mi WNW 11.5 mph 19.6 mph N/A   Overcast
9:53 AM 10.0 °F -3.7 °F -0.9 °F 61% 30.35 in 10.0 mi WNW 10.4 mph 17.3 mph N/A   Mostly Cloudy
10:53 AM 10.9 °F -4.7 °F -0.0 °F 61% 30.38 in 10.0 mi West 13.8 mph - N/A   Scattered Clouds
11:00 AM 10.4 °F -6.0 °F -0.4 °F 62% 30.33 in 10.0 mi West 15.0 mph 19.6 mph N/A   Mostly Cloudy
11:11 AM 10.4 °F -4.1 °F -0.4 °F 62% 30.33 in 10.0 mi West 11.5 mph - N/A   Scattered Clouds
11:53 AM 12.0 °F -2.7 °F 1.0 °F 61% 30.39 in 10.0 mi West 12.7 mph - N/A   Mostly Cloudy
12:53 PM 12.9 °F -2.8 °F 1.9 °F 62% 30.39 in 10.0 mi WSW 15.0 mph - N/A   Overcast
1:53 PM 14.0 °F 0.5 °F 3.0 °F 62% 30.39 in 10.0 mi WSW 11.5 mph 19.6 mph N/A   Overcast
3:53 PM 14.0 °F 1.2 °F 3.0 °F 62% 30.39 in 10.0 mi WSW 10.4 mph - N/A   Overcast
4:53 PM 14.0 °F -0.8 °F 3.0 °F 62% 30.39 in 10.0 mi WSW 13.8 mph - N/A   Overcast
5:53 PM 14.0 °F 1.2 °F 3.0 °F 62% 30.39 in 10.0 mi WSW 10.4 mph - N/A   Overcast
6:53 PM 14.0 °F 2.9 °F 3.0 °F 62% 30.40 in 10.0 mi WSW 8.1 mph - N/A   Overcast
7:53 PM 12.9 °F 3.8 °F 3.0 °F 65% 30.41 in 10.0 mi WSW 5.8 mph - N/A   Mostly Cloudy
8:53 PM 12.0 °F - 1.9 °F 64% 30.40 in 10.0 mi Calm Calm - N/A   Partly Cloudy
9:53 PM 10.0 °F - 1.9 °F 70% 30.40 in 10.0 mi Calm Calm - N/A   Partly Cloudy
10:53 PM 10.0 °F - 1.9 °F 70% 30.39 in 10.0 mi Calm Calm - N/A   Mostly Cloudy
11:53 PM 8.1 °F - 1.0 °F 73% 30.38 in 10.0 mi Calm Calm - N/A   Clear